LEMHLESO

Guest
Details From LEMH - Menorca
To LESO - San_Sebastian
Flight Number -
Tags decoded
Created
Modified
Stats Distance 342 nm / 633 km
Max Altitude 0 ft / 0 m
Waypoints 2
Social Downloads 0
Likes 0
Share VATSIM

Download

Looking for another format? Having issues loading an existing format? Contact us
Advertisement - Login to hide

Notes

Requested: LEMH LESO

Route

LEMH LESO

ID Type Via Altitude Latitude Longitude Leg Dist Tot Dist Heading (true) Name
O LEMH APT - 0 ft / 0 m 39.86222˚ 4.21976˚ - 0 nm - Menorca
O LESO APT - 0 ft / 0 m 43.35652˚ -1.79061˚ 341 nm 341 nm 310° / 306° San_Sebastian

Altitude Profile

Advertisement - Login to hide

Weather


0- 5 10 15 20 25 30 35+ Temperature / ° C

Clouds and Precipitation
Forecast for 2018-05-21 18:00 UTC. Updated 5 hours ago

Ground ~20,000 ft ~40,000 ft Winds

LEMH

Details ICAO LEMH (MAH)
Name Menorca
Region Spain
Timezone Europe/Madrid (UTC+2.0)
Stats Elevation 298 ft / 91 m (AMSL)
Location 39.862221° 4.219762°
Runways 2
Magnetic Variation 1.372° E

METAR

LEMH 212230Z 30002KT 9999 FEW020 15/14 Q1012

Decode

TAF

TAF LEMH 212000Z 2121/2221 VRB03KT 9999 FEW020 TX23/2212Z TN13/2206Z TEMPO 2122/2207 27006KT BECMG 2208/2210 22010KT

Decode

Departure Runways

ID Width Length Bearing (true) Bearing (mag) Surface Threshold Offset Overrun Length
01L 148 ft / 45 m 7,723 ft / 2,354 m 8.97° 7.60° Asphalt 0 ft / 0 m 164 ft / 50 m
01R 148 ft / 45 m 6,903 ft / 2,104 m 8.97° 7.60° Asphalt 0 ft / 0 m 0 ft / 0 m
19L 148 ft / 45 m 6,903 ft / 2,104 m 188.97° 187.60° Asphalt 0 ft / 0 m 0 ft / 0 m
19R 148 ft / 45 m 7,723 ft / 2,354 m 188.97° 187.60° Asphalt 0 ft / 0 m 164 ft / 50 m

LESO

Details ICAO LESO (EAS)
Name San_Sebastian
Region Spain
Timezone Europe/Madrid (UTC+2.0)
Stats Elevation 14 ft / 4 m (AMSL)
Location 43.356520° -1.790611°
Runways 1
Magnetic Variation 0.244° W

METAR

LESO 212230Z AUTO 17003KT 9999 NCD 16/13 Q1013

Decode

TAF

TAF LESO 211700Z 2118/2218 25009KT 9999 FEW030 TX23/2214Z TN13/2207Z PROB40 TEMPO 2118/2124 SHRA SCT035TCU PROB30 TEMPO 2118/2120 VRB15G25KT 3000 TS SCT035CB PROB40 TEMPO 2200/2208 3000 BR BKN010

Decode

Destination Runways

ID Width Length Bearing (true) Bearing (mag) Surface Threshold Offset Overrun Length
04 148 ft / 45 m 5,762 ft / 1,756 m 38.68° 38.92° Asphalt 0 ft / 0 m 0 ft / 0 m
22 148 ft / 45 m 5,762 ft / 1,756 m 218.69° 218.93° Asphalt 0 ft / 0 m 0 ft / 0 m